Location: Quaker Farms
(41.4276°N, 73.1557°W)
Time: 01:28:30
(UTC+00:00)

Altair - Pass Details

Date: 23 June 2021
Orbit: 1501 x 1682 km, 47.2° (Epoch: 23 July)

Event Time Altitude Azimuth Distance (km) Brightness Sun altitude
Rises 13:54:16 0° 167° (SSE) 4,624 10.2 48.4°
Reaches altitude 10° 14:00:37 10° 135° (SE) 3,672 10.2 49.6°
Maximum altitude 14:02:47 11° 121° (ESE) 3,605 10.3 50.0°
Drops below altitude 10° 14:04:59 10° 107° (ESE) 3,700 10.4 50.4°
Sets 14:11:25 0° 75° (ENE) 4,733 10.6 51.5°
